Regional Weather Roundup
Issued by NWS New Orleans/Baton Rouge, LA

Home | Current Version | Previous Version | Text Only | Print | Product List | Glossary On
Versions: 1 2 3 4 5 6 7 8 9 10 11 12 13 14 15 16 17 18 19 20 21 22 23 24 25 26
000
ASUS44 KLIX 270611
RWRLIX
NEW ORLEANS REGIONAL WEATHER ROUNDUP
NATIONAL WEATHER SERVICE NEW ORLEANS LA
100 AM CDT FRI MAY 27 2016

NOTE: "FAIR" INDICATES FEW OR NO CLOUDS BELOW 12,000 FEET WITH NO
      SIGNIFICANT WEATHER AND/OR OBSTRUCTIONS TO VISIBILITY.
      SKY/WX - SKY CONDITION AND SIGNIFICANT WEATHER.
      TMP - AIR TEMPERATURE.     DP    - DEWPOINT TEMPERATURE.
      RH  - RELATIVE HUMIDITY.   PRES  - PRESSURE.
      HI  - HEAT INDEX.          WCI   - WIND CHILL INDEX.

*  THESE STATIONS ARE NOT NWS OR FAA STATIONS AND ARE NOT UNDER
   NWS QUALITY CONTROL.

LAZ038-040-048-061>063-065>067-069-270700-
SOUTHEAST LOUISIANA

CITY           SKY/WX    TMP DP  RH WIND       PRES   REMARKS
N.O. AUDUBON   NOT AVBL
N.O. INTL ARPT CLOUDY    78  71  79 SE7       29.98F
6HR MIN TEMP:  78; 6HR MAX TEMP:  82;

N.O. LAKEFRONT CLOUDY    79  72  79 SE12      29.99F
6HR MIN TEMP:  79; 6HR MAX TEMP:  83;

N.O. DOWNTOWN*   N/A     79  73  82 SE6       29.99F
6HR MIN TEMP:  79; 6HR MAX TEMP:  84;

RESERVE*         N/A     78  73  84 SE7       29.98S
6HR MIN TEMP:  78; 6HR MAX TEMP:  82;

SLIDELL        MOCLDY    77  73  87 SE7       29.99S
6HR MIN TEMP:  77; 6HR MAX TEMP:  81;

BATON ROUGE    CLOUDY    78  70  76 SE9       29.97S
6HR MIN TEMP:  78; 6HR MAX TEMP:  83;

BOOTHVILLE     CLOUDY    76  72  87 SE7       30.01F
6HR MIN TEMP:  75; 6HR MAX TEMP:  80;

BELLE CHASSE   CLOUDY    78  73  84 SE10      29.98F
6HR MIN TEMP:  78; 6HR MAX TEMP:  81;

BOGALUSA*        N/A     76  70  81 SE6       30.00F
6HR MIN TEMP:  76; 6HR MAX TEMP:  82;

GALLIANO*      MOCLDY    79  71  76 S8        29.98F
6HR MIN TEMP:  79; 6HR MAX TEMP:  82;

NEW ROADS*       N/A     76  72  85 S5        29.97S
6HR MIN TEMP:  76; 6HR MAX TEMP:  82;

GONZALES*      MOCLDY    77  74  90 S5        29.97S
6HR MIN TEMP:  76; 6HR MAX TEMP:  82; 6HR PCP:  0.01;

HAMMOND*       CLOUDY    75  70  83 S5        29.98S
HOUMA*         MOCLDY    77  72  83 SE12G17   29.97F
6HR MIN TEMP:  76; 6HR MAX TEMP:  80; 6HR PCP:  0.02;

PORT FOURCHON* MOCLDY    81  72  74 SE12G18   29.99S

$$

MSZ070-080>082-270700-
SOUTHERN MISSISSIPPI

CITY           SKY/WX    TMP DP  RH WIND       PRES   REMARKS
MCCOMB         PTCLDY    73  70  90 S8        29.98F
6HR MIN TEMP:  72; 6HR MAX TEMP:  81;

GULFPORT       MOCLDY    79  70  74 S14       30.00F
6HR MIN TEMP:  79; 6HR MAX TEMP:  81;

BILOXI         CLOUDY    79  73  81 S10G18    30.00F
6HR MIN TEMP:  79; 6HR MAX TEMP:  81;

PASCAGOULA     CLEAR     73  70  90 SE5       30.01F
6HR MIN TEMP:  72; 6HR MAX TEMP:  80;


$$

COASTAL OBSERVATIONS
LAKE AND NEARSHORE STATIONS

STATION/POSITION TIME  TEMP    WIND        PRES    WAVE
                       AIR SEA DIR/SP/G            HT/PER
                 (UTC) (F)     (DEG/KT/KT) (MB)    (FT/S)
PASCAGOULA       0500   79     150/ 10/ 13 1016.3
WAVELAND YACHT   0500   80 81  170/ 14/ 17 1016.0
GRAND ISLE       0500   79 83  160/ 10/ 14 1015.7
SOUTHWEST PASS   0500          140/  6/ 12   N/A
NEW CANAL        0500   79 81  140/  4/  9 1014.8
SHELL BEACH      0500   78 83  140/  9/ 12 1016.1

OFFSHORE STATIONS

STATION/POSITION TIME  TEMP    WIND        PRES    WAVE
                       AIR SEA DIR/SP/G            HT/PER
                 (UTC) (F)     (DEG/KT/KT) (MB)    (FT/S)
64 S DAUPHIN ISL 0500   78 80  130/ 14/ 16 1016.8

$$





USA.gov is the U.S. government's official web portal to all federal, state and local government web resources and services.